Year,Month,Day,Hour,Minute,Value (Times are PST for temperature in C)
2015,12,08,00,00,7.90
2015,12,08,00,01,7.80
2015,12,08,00,02,7.80
2015,12,08,00,03,7.90
2015,12,08,00,04,7.80
2015,12,08,00,05,7.80
2015,12,08,00,06,7.80
2015,12,08,00,07,7.80
2015,12,08,00,08,7.80
2015,12,08,00,09,7.80
2015,12,08,00,10,7.80
2015,12,08,00,11,7.80
2015,12,08,00,12,7.80
2015,12,08,00,14,7.80
2015,12,08,00,15,7.80
2015,12,08,00,16,7.80
2015,12,08,00,17,7.80
2015,12,08,00,18,7.80
2015,12,08,00,19,7.80
2015,12,08,00,20,7.80
2015,12,08,00,21,7.80
2015,12,08,00,22,7.80
2015,12,08,00,23,7.80
2015,12,08,00,24,7.80
2015,12,08,00,25,7.70
2015,12,08,00,26,7.70
2015,12,08,00,27,7.70
2015,12,08,00,28,7.70
2015,12,08,00,29,7.70
2015,12,08,00,30,7.70
2015,12,08,00,31,7.70
2015,12,08,00,32,7.70
2015,12,08,00,33,7.70
2015,12,08,00,34,7.70
2015,12,08,00,35,7.70
2015,12,08,00,36,7.70
2015,12,08,00,37,7.70
2015,12,08,00,38,7.70
2015,12,08,00,39,7.70
2015,12,08,00,40,7.70
2015,12,08,00,41,7.70
2015,12,08,00,42,7.70
2015,12,08,00,43,7.70
2015,12,08,00,44,7.70
2015,12,08,00,45,7.70
2015,12,08,00,46,7.70
2015,12,08,00,47,7.70
2015,12,08,00,48,7.70
2015,12,08,00,49,7.70
2015,12,08,00,50,7.70
2015,12,08,00,51,7.70
2015,12,08,00,52,7.70
2015,12,08,00,53,7.70
2015,12,08,00,54,7.70
2015,12,08,00,55,7.70
2015,12,08,00,56,7.70
2015,12,08,00,57,7.70
2015,12,08,00,58,7.70
2015,12,08,00,59,7.70
2015,12,08,01,00,7.70
2015,12,08,01,01,7.70
2015,12,08,01,02,7.70
2015,12,08,01,03,7.70
2015,12,08,01,04,7.70
2015,12,08,01,05,7.70
2015,12,08,01,06,7.70
2015,12,08,01,07,7.70
2015,12,08,01,08,7.70
2015,12,08,01,09,7.70
2015,12,08,01,10,7.70
2015,12,08,01,11,7.70
2015,12,08,01,12,7.70
2015,12,08,01,13,7.70
2015,12,08,01,14,7.70
2015,12,08,01,15,7.70
2015,12,08,01,16,7.70
2015,12,08,01,17,7.70
2015,12,08,01,18,7.70
2015,12,08,01,19,7.70
2015,12,08,01,20,7.70
2015,12,08,01,21,7.70
2015,12,08,01,22,7.70
2015,12,08,01,23,7.70
2015,12,08,01,24,7.80
2015,12,08,01,25,7.80
2015,12,08,01,26,7.80
2015,12,08,01,27,7.80
2015,12,08,01,28,7.80
2015,12,08,01,29,7.80
2015,12,08,01,30,7.80
2015,12,08,01,31,7.80
2015,12,08,01,32,7.80
2015,12,08,01,33,7.80
2015,12,08,01,34,7.80
2015,12,08,01,35,7.80
2015,12,08,01,36,7.80
2015,12,08,01,37,7.80
2015,12,08,01,38,7.80
2015,12,08,01,39,7.80
2015,12,08,01,40,7.80
2015,12,08,01,41,7.80
2015,12,08,01,42,7.80
2015,12,08,01,43,7.80
2015,12,08,01,44,7.80
2015,12,08,01,45,7.80
2015,12,08,01,46,7.80
2015,12,08,01,47,7.80
2015,12,08,01,48,7.80
2015,12,08,01,49,7.80
2015,12,08,01,50,7.80
2015,12,08,01,51,7.80
2015,12,08,01,52,7.80
2015,12,08,01,53,7.80
2015,12,08,01,54,7.80
2015,12,08,01,55,7.80
2015,12,08,01,56,7.80
2015,12,08,01,57,7.90
2015,12,08,01,58,7.90
2015,12,08,01,59,7.90
2015,12,08,02,00,7.90
2015,12,08,02,01,7.90
2015,12,08,02,02,7.90
2015,12,08,02,03,7.90
2015,12,08,02,04,7.90
2015,12,08,02,05,7.90
2015,12,08,02,06,7.90
2015,12,08,02,07,7.90
2015,12,08,02,08,7.90
2015,12,08,02,09,7.90
2015,12,08,02,10,7.90
2015,12,08,02,11,7.90
2015,12,08,02,12,7.90
2015,12,08,02,13,7.80
2015,12,08,02,14,7.90
2015,12,08,02,15,7.90
2015,12,08,02,16,7.80
2015,12,08,02,17,7.80
2015,12,08,02,18,7.80
2015,12,08,02,19,7.90
2015,12,08,02,20,7.90
2015,12,08,02,21,7.90
2015,12,08,02,22,7.90
2015,12,08,02,23,7.90
2015,12,08,02,24,7.90
2015,12,08,02,25,7.90
2015,12,08,02,26,8.00
2015,12,08,02,27,8.00
2015,12,08,02,28,8.00
2015,12,08,02,29,8.00
2015,12,08,02,30,8.10
2015,12,08,02,31,8.10
2015,12,08,02,32,8.10
2015,12,08,02,33,8.10
2015,12,08,02,34,8.10
2015,12,08,02,35,8.10
2015,12,08,02,36,8.10
2015,12,08,02,37,8.20
2015,12,08,02,38,8.20
2015,12,08,02,39,8.20
2015,12,08,02,40,8.20
2015,12,08,02,41,8.20
2015,12,08,02,42,8.30
2015,12,08,02,43,8.30
2015,12,08,02,44,8.30
2015,12,08,02,45,8.50
2015,12,08,02,46,8.60
2015,12,08,02,47,8.80
2015,12,08,02,48,8.90
2015,12,08,02,49,9.10
2015,12,08,02,50,9.10
2015,12,08,02,51,9.20
2015,12,08,02,52,9.20
2015,12,08,02,53,9.30
2015,12,08,02,54,9.30
2015,12,08,02,55,9.30
2015,12,08,02,56,9.20
2015,12,08,02,57,9.20
2015,12,08,02,58,9.10
2015,12,08,02,59,9.10
2015,12,08,03,00,9.00
2015,12,08,03,01,9.00
2015,12,08,03,02,8.90
2015,12,08,03,03,8.90
2015,12,08,03,04,8.90
2015,12,08,03,05,9.00
2015,12,08,03,06,9.10
2015,12,08,03,07,9.20
2015,12,08,03,08,9.30
2015,12,08,03,09,9.40
2015,12,08,03,10,9.50
2015,12,08,03,11,9.70
2015,12,08,03,12,9.70
2015,12,08,03,13,9.80
2015,12,08,03,14,9.80
2015,12,08,03,15,9.80
2015,12,08,03,16,9.90
2015,12,08,03,17,9.90
2015,12,08,03,18,10.10
2015,12,08,03,19,10.10
2015,12,08,03,20,10.10
2015,12,08,03,21,10.20
2015,12,08,03,22,10.20
2015,12,08,03,23,10.10
2015,12,08,03,24,10.10
2015,12,08,03,25,10.10
2015,12,08,03,26,10.10
2015,12,08,03,27,10.10
2015,12,08,03,28,10.10
2015,12,08,03,29,10.10
2015,12,08,03,30,10.10
2015,12,08,03,31,10.10
2015,12,08,03,32,10.20
2015,12,08,03,33,10.20
2015,12,08,03,34,10.20
2015,12,08,03,35,10.20
2015,12,08,03,36,10.20
2015,12,08,03,37,10.20
2015,12,08,03,38,10.20
2015,12,08,03,39,10.20
2015,12,08,03,40,10.20
2015,12,08,03,41,10.20
2015,12,08,03,42,10.20
2015,12,08,03,43,10.20
2015,12,08,03,44,10.20
2015,12,08,03,45,10.20
2015,12,08,03,46,10.30
2015,12,08,03,47,10.20
2015,12,08,03,48,10.20
2015,12,08,03,49,10.20
2015,12,08,03,50,10.20
2015,12,08,03,51,10.20
2015,12,08,03,52,10.10
2015,12,08,03,53,10.10
2015,12,08,03,54,10.10
2015,12,08,03,55,10.10
2015,12,08,03,56,10.10
2015,12,08,03,57,10.20
2015,12,08,03,58,10.20
2015,12,08,03,59,10.20
2015,12,08,04,00,10.20
2015,12,08,04,01,10.20
2015,12,08,04,02,10.20
2015,12,08,04,03,10.30
2015,12,08,04,04,10.30
2015,12,08,04,05,10.20
2015,12,08,04,06,10.30
2015,12,08,04,07,10.20
2015,12,08,04,08,10.30
2015,12,08,04,09,10.30
2015,12,08,04,10,10.20
2015,12,08,04,11,10.20
2015,12,08,04,12,10.20
2015,12,08,04,13,10.10
2015,12,08,04,14,10.10
2015,12,08,04,15,10.10
2015,12,08,04,16,10.10
2015,12,08,04,17,10.10
2015,12,08,04,18,10.10
2015,12,08,04,19,10.10
2015,12,08,04,20,10.10
2015,12,08,04,21,10.10
2015,12,08,04,22,10.10
2015,12,08,04,23,10.00
2015,12,08,04,24,10.00
2015,12,08,04,25,10.00
2015,12,08,04,26,10.00
2015,12,08,04,27,10.10
2015,12,08,04,28,10.00
2015,12,08,04,29,10.00
2015,12,08,04,30,10.00
2015,12,08,04,31,10.00
2015,12,08,04,32,9.90
2015,12,08,04,33,9.90
2015,12,08,04,34,9.90
2015,12,08,04,35,9.90
2015,12,08,04,36,10.00
2015,12,08,04,37,9.90
2015,12,08,04,38,9.90
2015,12,08,04,39,9.90
2015,12,08,04,40,9.90
2015,12,08,04,41,9.90
2015,12,08,04,42,9.90
2015,12,08,04,43,9.90
2015,12,08,04,44,9.90
2015,12,08,04,45,10.00
2015,12,08,04,46,10.00
2015,12,08,04,47,10.10
2015,12,08,04,48,10.10
2015,12,08,04,49,10.10
2015,12,08,04,50,10.10
2015,12,08,04,51,10.10
2015,12,08,04,52,10.10
2015,12,08,04,53,10.10
2015,12,08,04,54,10.10
2015,12,08,04,55,10.10
2015,12,08,04,56,10.10
2015,12,08,04,57,10.10
2015,12,08,04,58,10.20
2015,12,08,04,59,10.20
2015,12,08,05,00,10.20
2015,12,08,05,01,10.20
2015,12,08,05,02,10.20
2015,12,08,05,03,10.10
2015,12,08,05,04,10.10
2015,12,08,05,05,10.10
2015,12,08,05,06,10.00
2015,12,08,05,07,10.00
2015,12,08,05,08,9.90
2015,12,08,05,09,9.90
2015,12,08,05,10,9.90
2015,12,08,05,11,9.90
2015,12,08,05,12,9.80
2015,12,08,05,13,9.80
2015,12,08,05,14,9.80
2015,12,08,05,15,9.80
2015,12,08,05,16,9.80
2015,12,08,05,17,9.80
2015,12,08,05,18,9.80
2015,12,08,05,19,9.80
2015,12,08,05,20,9.80
2015,12,08,05,21,9.80
2015,12,08,05,22,9.80
2015,12,08,05,23,9.80
2015,12,08,05,24,9.80
2015,12,08,05,25,9.80
2015,12,08,05,26,9.80
2015,12,08,05,27,9.80
2015,12,08,05,28,9.80
2015,12,08,05,29,9.80
2015,12,08,05,30,9.90
2015,12,08,05,31,10.00
2015,12,08,05,32,10.10
2015,12,08,05,33,10.10
2015,12,08,05,34,10.10
2015,12,08,05,35,10.20
2015,12,08,05,36,10.20
2015,12,08,05,37,10.20
2015,12,08,05,38,10.20
2015,12,08,05,39,10.20
2015,12,08,05,40,10.20
2015,12,08,05,41,10.10
2015,12,08,05,42,10.10
2015,12,08,05,43,10.00
2015,12,08,05,44,9.90
2015,12,08,05,45,9.90
2015,12,08,05,46,9.80
2015,12,08,05,47,9.80
2015,12,08,05,48,9.80
2015,12,08,05,49,9.80
2015,12,08,05,50,9.80
2015,12,08,05,51,9.80
2015,12,08,05,52,9.80
2015,12,08,05,53,9.80
2015,12,08,05,54,9.80
2015,12,08,05,55,9.80
2015,12,08,05,56,9.80
2015,12,08,05,57,9.90
2015,12,08,05,58,10.00
2015,12,08,05,59,10.00
2015,12,08,06,00,10.10
2015,12,08,06,01,10.10
2015,12,08,06,02,10.10
2015,12,08,06,03,10.10
2015,12,08,06,04,10.10
2015,12,08,06,05,10.00
2015,12,08,06,06,10.00
2015,12,08,06,07,9.90
2015,12,08,06,08,9.90
2015,12,08,06,09,9.90
2015,12,08,06,10,9.90
2015,12,08,06,11,9.90
2015,12,08,06,12,9.80
2015,12,08,06,13,9.80
2015,12,08,06,14,9.80
2015,12,08,06,15,9.70
2015,12,08,06,16,9.70
2015,12,08,06,17,9.70
2015,12,08,06,18,9.70
2015,12,08,06,19,9.70
2015,12,08,06,20,9.70
2015,12,08,06,21,9.70
2015,12,08,06,22,9.80
2015,12,08,06,23,9.80
2015,12,08,06,24,10.20
2015,12,08,06,25,10.40
2015,12,08,06,26,10.60
2015,12,08,06,27,10.70
2015,12,08,06,28,10.90
2015,12,08,06,29,11.00
2015,12,08,06,30,11.10
2015,12,08,06,31,11.20
2015,12,08,06,32,11.40
2015,12,08,06,33,11.60
2015,12,08,06,34,11.80
2015,12,08,06,35,12.10
2015,12,08,06,36,12.20
2015,12,08,06,37,12.30
2015,12,08,06,38,12.40
2015,12,08,06,39,12.60
2015,12,08,06,40,12.70
2015,12,08,06,41,12.80
2015,12,08,06,42,12.90
2015,12,08,06,43,13.10
2015,12,08,06,44,13.20
2015,12,08,06,45,13.30
2015,12,08,06,46,13.40
2015,12,08,06,47,13.50
2015,12,08,06,48,13.60
2015,12,08,06,49,13.60
2015,12,08,06,50,13.60
2015,12,08,06,51,13.70
2015,12,08,06,52,13.70
2015,12,08,06,53,13.70
2015,12,08,06,54,13.70
2015,12,08,06,55,13.80
2015,12,08,06,56,13.80
2015,12,08,06,57,13.90
2015,12,08,06,58,13.90
2015,12,08,06,59,14.00
2015,12,08,07,00,14.00
2015,12,08,07,01,14.10
2015,12,08,07,02,14.10
2015,12,08,07,03,14.20
2015,12,08,07,04,14.20
2015,12,08,07,05,14.30
2015,12,08,07,06,14.30
2015,12,08,07,07,14.40
2015,12,08,07,08,14.40
2015,12,08,07,09,14.40
2015,12,08,07,10,14.50
2015,12,08,07,11,14.50
2015,12,08,07,12,14.50
2015,12,08,07,13,14.50
2015,12,08,07,14,14.40
2015,12,08,07,15,14.40
2015,12,08,07,16,14.40
2015,12,08,07,17,14.50
2015,12,08,07,18,14.60
2015,12,08,07,19,14.60
2015,12,08,07,20,14.60
2015,12,08,07,21,14.60
2015,12,08,07,22,14.60
2015,12,08,07,23,14.60
2015,12,08,07,24,14.60
2015,12,08,07,25,14.60
2015,12,08,07,26,14.60
2015,12,08,07,27,14.60
2015,12,08,07,28,14.60
2015,12,08,07,29,14.60
2015,12,08,07,30,14.60
2015,12,08,07,31,14.50
2015,12,08,07,32,14.50
2015,12,08,07,33,14.40
2015,12,08,07,34,14.40
2015,12,08,07,35,14.40
2015,12,08,07,36,14.40
2015,12,08,07,37,14.30
2015,12,08,07,38,14.30
2015,12,08,07,39,14.40
2015,12,08,07,40,14.30
2015,12,08,07,41,14.30
2015,12,08,07,42,14.30
2015,12,08,07,43,14.30
2015,12,08,07,44,14.30
2015,12,08,07,45,14.30
2015,12,08,07,46,14.30
2015,12,08,07,47,14.30
2015,12,08,07,48,14.30
2015,12,08,07,49,14.30
2015,12,08,07,50,14.30
2015,12,08,07,51,14.30
2015,12,08,07,52,14.30
2015,12,08,07,53,14.30
2015,12,08,07,54,14.20
2015,12,08,07,55,14.20
2015,12,08,07,56,14.20
2015,12,08,07,57,14.20
2015,12,08,07,58,14.20
2015,12,08,07,59,14.20
2015,12,08,08,00,14.20
2015,12,08,08,01,14.10
2015,12,08,08,02,14.10
2015,12,08,08,03,14.10
2015,12,08,08,04,14.10
2015,12,08,08,05,14.20
2015,12,08,08,06,14.20
2015,12,08,08,07,14.20
2015,12,08,08,08,14.20
2015,12,08,08,09,14.10
2015,12,08,08,10,14.10
2015,12,08,08,11,14.10
2015,12,08,08,12,14.10
2015,12,08,08,13,14.10
2015,12,08,08,14,14.20
2015,12,08,08,15,14.20
2015,12,08,08,16,14.20
2015,12,08,08,17,14.20
2015,12,08,08,18,14.20
2015,12,08,08,19,14.20
2015,12,08,08,20,14.20
2015,12,08,08,21,14.20
2015,12,08,08,22,14.30
2015,12,08,08,23,14.30
2015,12,08,08,24,14.30
2015,12,08,08,25,14.20
2015,12,08,08,26,14.20
2015,12,08,08,27,14.20
2015,12,08,08,28,14.20
2015,12,08,08,29,14.10
2015,12,08,08,30,14.10
2015,12,08,08,31,14.00
2015,12,08,08,32,14.00
2015,12,08,08,33,13.90
2015,12,08,08,34,13.90
2015,12,08,08,35,13.90
2015,12,08,08,36,13.80
2015,12,08,08,37,13.80
2015,12,08,08,38,13.80
2015,12,08,08,39,13.80
2015,12,08,08,40,13.80
2015,12,08,08,41,13.80
2015,12,08,08,42,13.90
2015,12,08,08,43,14.10
2015,12,08,08,44,14.20
2015,12,08,08,45,14.20
2015,12,08,08,46,14.20
2015,12,08,08,47,14.20
2015,12,08,08,48,14.20
2015,12,08,08,49,14.20
2015,12,08,08,50,14.20
2015,12,08,08,51,14.20
2015,12,08,08,52,14.20
2015,12,08,08,53,14.20
2015,12,08,08,54,14.20
2015,12,08,08,55,14.20
2015,12,08,08,56,14.10
2015,12,08,08,57,14.10
2015,12,08,08,58,14.10
2015,12,08,08,59,14.10
2015,12,08,09,00,14.10
2015,12,08,09,01,14.20
2015,12,08,09,02,14.20
2015,12,08,09,03,14.20
2015,12,08,09,04,14.20
2015,12,08,09,05,14.20
2015,12,08,09,06,14.10
2015,12,08,09,07,14.10
2015,12,08,09,08,14.10
2015,12,08,09,09,14.10
2015,12,08,09,10,14.10
2015,12,08,09,11,14.20
2015,12,08,09,12,14.20
2015,12,08,09,13,14.20
2015,12,08,09,14,14.20
2015,12,08,09,15,14.10
2015,12,08,09,16,14.10
2015,12,08,09,17,14.10
2015,12,08,09,18,14.10
2015,12,08,09,19,14.10
2015,12,08,09,20,14.20
2015,12,08,09,21,14.20
2015,12,08,09,22,14.20
2015,12,08,09,23,14.20
2015,12,08,09,24,14.20
2015,12,08,09,25,14.20
2015,12,08,09,26,14.20
2015,12,08,09,27,14.10
2015,12,08,09,28,13.90
2015,12,08,09,29,13.90
2015,12,08,09,30,14.10
2015,12,08,09,31,14.10
2015,12,08,09,32,14.20
2015,12,08,09,33,14.20
2015,12,08,09,34,14.20
2015,12,08,09,35,14.10
2015,12,08,09,36,14.20
2015,12,08,09,37,14.20
2015,12,08,09,38,14.10
2015,12,08,09,39,14.10
2015,12,08,09,40,14.10
2015,12,08,09,41,14.10
2015,12,08,09,42,14.00
2015,12,08,09,43,14.00
2015,12,08,09,44,13.90
2015,12,08,09,45,13.90
2015,12,08,09,46,13.90
2015,12,08,09,47,13.80
2015,12,08,09,48,13.80
2015,12,08,09,49,13.70
2015,12,08,09,50,13.70
2015,12,08,09,51,13.60
2015,12,08,09,52,13.60
2015,12,08,09,53,13.60
2015,12,08,09,54,13.50
2015,12,08,09,55,13.40
2015,12,08,09,56,13.40
2015,12,08,09,57,13.30
2015,12,08,09,58,13.30
2015,12,08,09,59,13.30
2015,12,08,10,00,13.20
2015,12,08,10,01,13.20
2015,12,08,10,02,13.20
2015,12,08,10,03,13.10
2015,12,08,10,04,13.10
2015,12,08,10,05,13.10
2015,12,08,10,06,13.10
2015,12,08,10,07,13.00
2015,12,08,10,08,12.90
2015,12,08,10,09,12.90
2015,12,08,10,10,12.80
2015,12,08,10,11,12.80
2015,12,08,10,12,12.80
2015,12,08,10,13,12.80
2015,12,08,10,14,12.70
2015,12,08,10,15,12.70
2015,12,08,10,16,12.70
2015,12,08,10,17,12.70
2015,12,08,10,18,12.70
2015,12,08,10,19,12.70
2015,12,08,10,20,12.80
2015,12,08,10,21,12.80
2015,12,08,10,22,12.80
2015,12,08,10,23,12.80
2015,12,08,10,24,12.80
2015,12,08,10,25,12.80
2015,12,08,10,26,12.80
2015,12,08,10,27,12.80
2015,12,08,10,28,12.80
2015,12,08,10,29,12.90
2015,12,08,10,30,12.90
2015,12,08,10,31,12.90
2015,12,08,10,32,13.00
2015,12,08,10,33,13.00
2015,12,08,10,34,13.00
2015,12,08,10,35,13.00
2015,12,08,10,36,12.90
2015,12,08,10,37,12.90
2015,12,08,10,38,12.90
2015,12,08,10,39,13.00
2015,12,08,10,40,13.00
2015,12,08,10,41,13.00
2015,12,08,10,42,12.90
2015,12,08,10,43,13.00
2015,12,08,10,44,13.00
2015,12,08,10,45,13.00
2015,12,08,10,46,13.00
2015,12,08,10,47,13.00
2015,12,08,10,48,13.00
2015,12,08,10,49,13.10
2015,12,08,10,50,13.10
2015,12,08,10,51,13.00
2015,12,08,10,52,13.10
2015,12,08,10,53,13.10
2015,12,08,10,54,13.10
2015,12,08,10,55,13.00
2015,12,08,10,56,13.00
2015,12,08,10,57,13.00
2015,12,08,10,58,13.00
2015,12,08,10,59,13.00
2015,12,08,11,00,12.90
2015,12,08,11,01,12.90
2015,12,08,11,02,12.80
2015,12,08,11,03,12.80
2015,12,08,11,04,12.70
2015,12,08,11,05,12.70
2015,12,08,11,06,12.70
2015,12,08,11,07,12.70
2015,12,08,11,08,12.70
2015,12,08,11,09,12.70
2015,12,08,11,10,12.70
2015,12,08,11,11,12.70
2015,12,08,11,12,12.70
2015,12,08,11,13,12.70
2015,12,08,11,14,12.70
2015,12,08,11,15,12.80
2015,12,08,11,16,12.80
2015,12,08,11,17,12.80
2015,12,08,11,18,12.90
2015,12,08,11,19,12.90
2015,12,08,11,20,12.90
2015,12,08,11,21,12.90
2015,12,08,11,22,12.90
2015,12,08,11,23,12.90
2015,12,08,11,24,12.90
2015,12,08,11,25,12.90
2015,12,08,11,26,12.80
2015,12,08,11,27,12.80
2015,12,08,11,28,12.80
2015,12,08,11,29,12.80
2015,12,08,11,30,12.80
2015,12,08,11,31,12.80
2015,12,08,11,32,12.80
2015,12,08,11,33,12.90
2015,12,08,11,34,12.90
2015,12,08,11,35,13.00
2015,12,08,11,36,13.10
2015,12,08,11,37,13.10
2015,12,08,11,38,13.10
2015,12,08,11,39,13.10
2015,12,08,11,40,13.10
2015,12,08,11,41,13.10
2015,12,08,11,42,13.10
2015,12,08,11,43,13.10
2015,12,08,11,44,13.10
2015,12,08,11,45,13.10
2015,12,08,11,46,13.10
2015,12,08,11,47,13.10
2015,12,08,11,48,13.10
2015,12,08,11,49,13.10
2015,12,08,11,50,13.10
2015,12,08,11,51,13.10
2015,12,08,11,52,13.20
2015,12,08,11,53,13.20
2015,12,08,11,54,13.10
2015,12,08,11,55,13.10
2015,12,08,11,56,13.10
2015,12,08,11,57,13.10
2015,12,08,11,58,13.10
2015,12,08,11,59,13.10
2015,12,08,12,00,13.10
2015,12,08,12,02,13.10
2015,12,08,12,03,13.00
2015,12,08,12,04,13.00
2015,12,08,12,05,13.00
2015,12,08,12,06,13.00
2015,12,08,12,07,13.00
2015,12,08,12,08,13.00
2015,12,08,12,09,13.00
2015,12,08,12,10,12.90
2015,12,08,12,11,12.90
2015,12,08,12,13,12.90
2015,12,08,12,14,12.90
2015,12,08,12,15,12.90
2015,12,08,12,16,12.90
2015,12,08,12,17,12.90
2015,12,08,12,18,12.90
2015,12,08,12,19,12.90
2015,12,08,12,20,12.90
2015,12,08,12,21,12.90
2015,12,08,12,22,12.90
2015,12,08,12,23,12.90
2015,12,08,12,24,12.90
2015,12,08,12,25,12.90
2015,12,08,12,26,12.90
2015,12,08,12,27,12.90
2015,12,08,12,29,12.90
2015,12,08,12,30,12.90
2015,12,08,12,31,12.80
2015,12,08,12,32,12.80
2015,12,08,12,33,12.80
2015,12,08,12,34,12.80
2015,12,08,12,35,12.80
2015,12,08,12,36,12.80
2015,12,08,12,37,12.80
2015,12,08,12,38,12.80
2015,12,08,12,39,12.80
2015,12,08,12,40,12.80
2015,12,08,12,41,12.80
2015,12,08,12,42,12.80
2015,12,08,12,43,12.80
2015,12,08,12,44,12.80
2015,12,08,12,45,12.80
2015,12,08,12,46,12.80
2015,12,08,12,47,12.80
2015,12,08,12,48,12.80
2015,12,08,12,49,12.80
2015,12,08,12,50,12.80
2015,12,08,12,51,12.80
2015,12,08,12,52,12.80
2015,12,08,12,53,12.80
2015,12,08,12,54,12.80
2015,12,08,12,55,12.80
2015,12,08,12,56,12.80
2015,12,08,12,57,12.80
2015,12,08,12,58,12.80
2015,12,08,12,59,12.90
2015,12,08,13,00,12.90
2015,12,08,13,01,12.90
2015,12,08,13,02,12.90
2015,12,08,13,03,12.90
2015,12,08,13,04,12.90
2015,12,08,13,05,12.90
2015,12,08,13,06,12.90
2015,12,08,13,07,12.90
2015,12,08,13,08,12.90
2015,12,08,13,09,12.90
2015,12,08,13,10,12.90
2015,12,08,13,11,12.90
2015,12,08,13,12,12.90
2015,12,08,13,13,12.90
2015,12,08,13,14,12.90
2015,12,08,13,15,12.90
2015,12,08,13,16,12.90
2015,12,08,13,17,12.90
2015,12,08,13,18,12.90
2015,12,08,13,19,12.90
2015,12,08,13,20,12.90
2015,12,08,13,21,12.90
2015,12,08,13,22,12.90
2015,12,08,13,23,12.90
2015,12,08,13,24,12.80
2015,12,08,13,25,12.80
2015,12,08,13,26,12.80
2015,12,08,13,27,12.80
2015,12,08,13,28,12.70
2015,12,08,13,29,12.70
2015,12,08,13,30,12.70
2015,12,08,13,31,12.70
2015,12,08,13,32,12.70
2015,12,08,13,33,12.70
2015,12,08,13,34,12.70
2015,12,08,13,35,12.70
2015,12,08,13,36,12.70
2015,12,08,13,37,12.70
2015,12,08,13,38,12.60
2015,12,08,13,39,12.60
2015,12,08,13,40,12.60
2015,12,08,13,41,12.60
2015,12,08,13,42,12.60
2015,12,08,13,43,12.60
2015,12,08,13,44,12.60
2015,12,08,13,45,12.60
2015,12,08,13,46,12.60
2015,12,08,13,47,12.60
2015,12,08,13,48,12.60
2015,12,08,13,49,12.60
2015,12,08,13,50,12.60
2015,12,08,13,51,12.60
2015,12,08,13,52,12.60
2015,12,08,13,53,12.60
2015,12,08,13,54,12.60
2015,12,08,13,55,12.60
2015,12,08,13,56,12.60
2015,12,08,13,57,12.60
2015,12,08,13,58,12.60
2015,12,08,13,59,12.60
2015,12,08,14,00,12.60
2015,12,08,14,01,12.50
2015,12,08,14,02,12.50
2015,12,08,14,03,12.50
2015,12,08,14,04,12.50
2015,12,08,14,05,12.50
2015,12,08,14,06,12.40
2015,12,08,14,07,12.40
2015,12,08,14,08,12.40
2015,12,08,14,09,12.40
2015,12,08,14,10,12.40
2015,12,08,14,11,12.40
2015,12,08,14,12,12.30
2015,12,08,14,13,12.30
2015,12,08,14,14,12.30
2015,12,08,14,15,12.30
2015,12,08,14,16,12.30
2015,12,08,14,17,12.30
2015,12,08,14,18,12.30
2015,12,08,14,19,12.30
2015,12,08,14,20,12.30
2015,12,08,14,21,12.30
2015,12,08,14,22,12.30
2015,12,08,14,23,12.20
2015,12,08,14,24,12.20
2015,12,08,14,25,12.20
2015,12,08,14,26,12.20
2015,12,08,14,27,12.20
2015,12,08,14,28,12.20
2015,12,08,14,29,12.20
2015,12,08,14,30,12.20
2015,12,08,14,31,12.20
2015,12,08,14,32,12.20
2015,12,08,14,33,12.20
2015,12,08,14,34,12.20
2015,12,08,14,35,12.20
2015,12,08,14,36,12.10
2015,12,08,14,37,12.10
2015,12,08,14,38,12.10
2015,12,08,14,39,12.10
2015,12,08,14,40,12.10
2015,12,08,14,41,12.10
2015,12,08,14,42,12.10
2015,12,08,14,43,12.10
2015,12,08,14,44,12.10
2015,12,08,14,45,12.10
2015,12,08,14,46,12.10
2015,12,08,14,47,12.10
2015,12,08,14,48,12.10
2015,12,08,14,49,12.10
2015,12,08,14,50,12.10
2015,12,08,14,51,12.20
2015,12,08,14,52,12.20
2015,12,08,14,53,12.20
2015,12,08,14,54,12.20
2015,12,08,14,55,12.20
2015,12,08,14,56,12.20
2015,12,08,14,57,12.20
2015,12,08,14,58,12.20
2015,12,08,14,59,12.20
2015,12,08,15,00,12.20
2015,12,08,15,01,12.10
2015,12,08,15,02,12.10
2015,12,08,15,03,12.20
2015,12,08,15,04,12.20
2015,12,08,15,06,12.20
2015,12,08,15,07,12.20
2015,12,08,15,08,12.20
2015,12,08,15,09,12.20
2015,12,08,15,10,12.20
2015,12,08,15,11,12.10
2015,12,08,15,12,12.10
2015,12,08,15,13,12.10
2015,12,08,15,14,12.10
2015,12,08,15,15,12.10
2015,12,08,15,16,12.10
2015,12,08,15,17,12.10
2015,12,08,15,18,12.10
2015,12,08,15,19,12.10
2015,12,08,15,20,12.10
2015,12,08,15,21,12.10
2015,12,08,15,22,12.10
2015,12,08,15,23,12.00
2015,12,08,15,24,12.00
2015,12,08,15,25,12.00
2015,12,08,15,26,12.00
2015,12,08,15,27,12.00
2015,12,08,15,28,12.00
2015,12,08,15,29,12.00
2015,12,08,15,30,12.00
2015,12,08,15,31,12.00
2015,12,08,15,32,12.00
2015,12,08,15,33,12.00
2015,12,08,15,34,12.00
2015,12,08,15,35,11.90
2015,12,08,15,36,11.90
2015,12,08,15,37,11.90
2015,12,08,15,38,11.90
2015,12,08,15,39,11.90
2015,12,08,15,40,11.80
2015,12,08,15,41,11.80
2015,12,08,15,42,11.80
2015,12,08,15,43,11.80
2015,12,08,15,44,11.70
2015,12,08,15,45,11.70
2015,12,08,15,46,11.70
2015,12,08,15,47,11.70
2015,12,08,15,48,11.60
2015,12,08,15,49,11.60
2015,12,08,15,50,11.60
2015,12,08,15,51,11.60
2015,12,08,15,52,11.50
2015,12,08,15,53,11.40
2015,12,08,15,54,11.40
2015,12,08,15,55,11.40
2015,12,08,15,56,11.40
2015,12,08,15,57,11.30
2015,12,08,15,58,11.30
2015,12,08,15,59,11.30
2015,12,08,16,00,11.30
2015,12,08,16,01,11.30
2015,12,08,16,02,11.30
2015,12,08,16,03,11.30
2015,12,08,16,04,11.30
2015,12,08,16,05,11.30
2015,12,08,16,06,11.30
2015,12,08,16,07,11.30
2015,12,08,16,08,11.20
2015,12,08,16,09,11.20
2015,12,08,16,10,11.20
2015,12,08,16,11,11.20
2015,12,08,16,12,11.20
2015,12,08,16,13,11.20
2015,12,08,16,14,11.20
2015,12,08,16,15,11.20
2015,12,08,16,16,11.20
2015,12,08,16,17,11.20
2015,12,08,16,18,11.20
2015,12,08,16,19,11.20
2015,12,08,16,20,11.20
2015,12,08,16,22,11.20
2015,12,08,16,23,11.20
2015,12,08,16,24,11.20
2015,12,08,16,25,11.20
2015,12,08,16,26,11.20
2015,12,08,16,27,11.20
2015,12,08,16,28,11.20
2015,12,08,16,29,11.20
2015,12,08,16,30,11.20
2015,12,08,16,31,11.20
2015,12,08,16,32,11.20
2015,12,08,16,33,11.20
2015,12,08,16,34,11.20
2015,12,08,16,35,11.20
2015,12,08,16,37,11.10
2015,12,08,16,38,11.10
2015,12,08,16,39,11.10
2015,12,08,16,40,11.10
2015,12,08,16,41,11.00
2015,12,08,16,42,11.00
2015,12,08,16,43,10.90
2015,12,08,16,44,10.90
2015,12,08,16,45,10.90
2015,12,08,16,46,10.90
2015,12,08,16,47,10.90
2015,12,08,16,48,10.80
2015,12,08,16,49,10.80
2015,12,08,16,50,10.80
2015,12,08,16,51,10.80
2015,12,08,16,52,10.80
2015,12,08,16,53,10.80
2015,12,08,16,54,10.80
2015,12,08,16,55,10.80
2015,12,08,16,56,10.80
2015,12,08,16,57,10.80
2015,12,08,16,58,10.80
2015,12,08,16,59,10.80
2015,12,08,17,00,10.80
2015,12,08,17,01,10.70
2015,12,08,17,02,10.70
2015,12,08,17,03,10.70
2015,12,08,17,04,10.80
2015,12,08,17,05,10.80
2015,12,08,17,06,10.80
2015,12,08,17,07,10.80
2015,12,08,17,08,10.80
2015,12,08,17,09,10.80
2015,12,08,17,10,10.80
2015,12,08,17,11,10.70
2015,12,08,17,12,10.70
2015,12,08,17,13,10.70
2015,12,08,17,14,10.70
2015,12,08,17,15,10.70
2015,12,08,17,16,10.70
2015,12,08,17,17,10.70
2015,12,08,17,18,10.70
2015,12,08,17,19,10.70
2015,12,08,17,20,10.70
2015,12,08,17,21,10.70
2015,12,08,17,22,10.70
2015,12,08,17,23,10.70
2015,12,08,17,24,10.70
2015,12,08,17,25,10.70
2015,12,08,17,26,10.70
2015,12,08,17,27,10.60
2015,12,08,17,28,10.70
2015,12,08,17,29,10.70
2015,12,08,17,30,10.60
2015,12,08,17,31,10.60
2015,12,08,17,32,10.60
2015,12,08,17,33,10.60
2015,12,08,17,34,10.60
2015,12,08,17,35,10.60
2015,12,08,17,36,10.60
2015,12,08,17,37,10.60